Terminal Aerodrome Forecast
Issued by NWS

Home | Current Version | Previous Version | Text Only | Print | Product List | Glossary On
Versions: 1 2 3 4 5 6 7 8 9 10 11 12 13 14 15 16 17 18 19 20 21 22 23 24
000
FTUS44 KOUN 032325
TAFPNC
TAF
KPNC 032325Z 0400/0424 12009KT P6SM FEW070 BKN250
      TEMPO 0406/0409 -SHRA FEW040 BKN100
     FM040900 16007KT 6SM -TSRA FEW030 OVC060CB
      TEMPO 0411/0415 3SM TSRA BKN030CB OVC080
     FM041700 17007KT P6SM SCT050 BKN150 PROB30 0417/0420 6SM -TSRA
      BKN050CB OVC100=

USA.gov is the U.S. government's official web portal to all federal, state and local government web resources and services.